AAL4523 KDFW-KMSP

Flight info

Callsign AAL4523
Flight time N/A
Altitude 37000
Route BLECO8 TUL J25 MCI ROKKK NITZR3
Aircraft B738/M-SDE2E3FGHIRWXY/LB1

Departure

Time 2026-05-06 13:38
Airport Dallas Fort Worth International Airport (KDFW)

Arrival

Time N/A
Airport Minneapolis–Saint Paul International Airport / Wold–Chamberlain Field (KMSP)
Time Latitude Longitude Altitude Speed Heading
2026-05-06 13:20 32.89658 -97.04569 598 ft 0 kts 90°
2026-05-06 13:29 32.89658 -97.04579 598 ft 2 kts 90°
2026-05-06 13:29 32.89658 -97.04597 599 ft 2 kts 91°
2026-05-06 13:29 32.89658 -97.04615 600 ft 2 kts 90°
2026-05-06 13:29 32.89659 -97.04633 601 ft 2 kts 108°
2026-05-06 13:30 32.89665 -97.04648 601 ft 2 kts 127°
2026-05-06 13:30 32.89676 -97.04661 602 ft 2 kts 148°
2026-05-06 13:30 32.89690 -97.04668 602 ft 2 kts 168°
2026-05-06 13:30 32.89698 -97.04668 602 ft 1 kts 180°
2026-05-06 13:31 32.89703 -97.04668 602 ft 0 kts 181°
2026-05-06 13:32 32.89671 -97.04669 602 ft 12 kts 181°
2026-05-06 13:32 32.89554 -97.04668 598 ft 18 kts 180°
2026-05-06 13:32 32.89424 -97.04668 594 ft 13 kts 181°
2026-05-06 13:33 32.89365 -97.04712 594 ft 11 kts 263°
2026-05-06 13:33 32.89315 -97.04765 594 ft 11 kts 184°
2026-05-06 13:33 32.89206 -97.04768 590 ft 26 kts 180°
2026-05-06 13:33 32.89019 -97.04768 586 ft 23 kts 180°
2026-05-06 13:34 32.88853 -97.04770 583 ft 22 kts 180°
2026-05-06 13:34 32.88718 -97.04769 580 ft 19 kts 184°
2026-05-06 13:34 32.88589 -97.04770 577 ft 18 kts 177°
2026-05-06 13:34 32.88459 -97.04806 575 ft 19 kts 186°
2026-05-06 13:35 32.88318 -97.04806 572 ft 20 kts 181°
2026-05-06 13:35 32.88176 -97.04807 572 ft 20 kts 179°
2026-05-06 13:35 32.88034 -97.04807 570 ft 20 kts 181°
2026-05-06 13:35 32.87920 -97.04835 569 ft 15 kts 240°
2026-05-06 13:36 32.87909 -97.04954 568 ft 11 kts 271°
2026-05-06 13:36 32.87909 -97.04964 568 ft 0 kts 272°
2026-05-06 13:36 32.87910 -97.04977 568 ft 6 kts 272°
2026-05-06 13:36 32.87917 -97.05070 566 ft 13 kts 304°
2026-05-06 13:37 32.87966 -97.05093 567 ft 0 kts
2026-05-06 13:37 32.87985 -97.05093 567 ft 20 kts
2026-05-06 13:37 32.88402 -97.05093 574 ft 95 kts
2026-05-06 13:37 32.89278 -97.05087 634 ft 151 kts
2026-05-06 13:38 32.90255 -97.04997 1493 ft 141 kts
2026-05-06 13:38 32.91211 -97.04898 2266 ft 139 kts
2026-05-06 13:38 32.92194 -97.04851 2744 ft 153 kts 360°
2026-05-06 13:38 32.93387 -97.04870 3084 ft 177 kts 359°
2026-05-06 13:39 32.94622 -97.04879 3734 ft 184 kts 359°
2026-05-06 13:39 32.96008 -97.04981 4117 ft 209 kts 353°
2026-05-06 13:39 32.97502 -97.05160 4636 ft 227 kts 354°
2026-05-06 13:39 32.99150 -97.05254 5142 ft 246 kts 356°
2026-05-06 13:40 33.00914 -97.05283 5679 ft 263 kts 356°
2026-05-06 13:40 33.02754 -97.05299 6355 ft 272 kts 356°
2026-05-06 13:40 33.04662 -97.05317 7165 ft 276 kts 355°
2026-05-06 13:40 33.06603 -97.05346 8020 ft 278 kts 354°
2026-05-06 13:41 33.08538 -97.05502 8695 ft 285 kts 349°
2026-05-06 13:41 33.10527 -97.05785 9315 ft 293 kts 347°
2026-05-06 13:41 33.12550 -97.06117 10107 ft 296 kts 347°
2026-05-06 13:41 33.14621 -97.06454 10552 ft 312 kts 347°
2026-05-06 13:42 33.16836 -97.06802 10942 ft 329 kts 347°
2026-05-06 13:42 33.19173 -97.07154 11315 ft 347 kts 347°
2026-05-06 13:42 33.21651 -97.07517 11683 ft 364 kts 347°
2026-05-06 13:42 33.24215 -97.07890 12007 ft 381 kts 348°
2026-05-06 13:43 33.26891 -97.08277 12522 ft 391 kts 347°
2026-05-06 13:43 33.29607 -97.08669 13134 ft 398 kts 347°
2026-05-06 13:43 33.32393 -97.09071 13773 ft 405 kts 347°
2026-05-06 13:43 33.35166 -97.09472 14557 ft 406 kts 346°
2026-05-06 13:44 33.37971 -97.09877 15338 ft 408 kts 345°
2026-05-06 13:44 33.40791 -97.10285 16147 ft 410 kts 345°
2026-05-06 13:44 33.43657 -97.10625 16782 ft 418 kts 347°
2026-05-06 13:44 33.46602 -97.10713 17510 ft 426 kts 352°
2026-05-06 13:45 33.49598 -97.10538 18118 ft 435 kts 355°
2026-05-06 13:45 33.55660 -97.09782 19373 ft 446 kts 357°
2026-05-06 13:45 33.58765 -97.09341 20087 ft 447 kts 357°
2026-05-06 13:46 33.61866 -97.08909 20620 ft 453 kts 356°
2026-05-06 13:46 33.65017 -97.08479 21149 ft 458 kts 356°
2026-05-06 13:46 33.68160 -97.08057 21799 ft 459 kts 356°
2026-05-06 13:46 33.71366 -97.07633 22342 ft 463 kts 356°
2026-05-06 13:47 33.74587 -97.07217 22835 ft 467 kts 356°
2026-05-06 13:47 33.77800 -97.06802 23341 ft 471 kts 356°
2026-05-06 13:47 33.81083 -97.06383 23772 ft 476 kts 356°
2026-05-06 13:47 33.84398 -97.05956 24398 ft 477 kts 355°
2026-05-06 13:48 33.87720 -97.05533 24732 ft 485 kts 355°
2026-05-06 13:48 33.91060 -97.05108 25335 ft 486 kts 355°
2026-05-06 13:48 33.94477 -97.04674 25646 ft 494 kts 355°
2026-05-06 13:48 33.97881 -97.04240 26204 ft 496 kts 355°
2026-05-06 13:49 34.01345 -97.03794 26741 ft 498 kts 355°
2026-05-06 13:49 34.04793 -97.03354 27069 ft 504 kts 355°
2026-05-06 13:49 34.08316 -97.02902 27576 ft 506 kts 355°
2026-05-06 13:49 34.11823 -97.02451 27986 ft 510 kts 355°
2026-05-06 13:50 34.15373 -97.01997 28324 ft 515 kts 355°
2026-05-06 13:50 34.18954 -97.01535 28869 ft 514 kts 355°
2026-05-06 13:50 34.22502 -97.01069 29590 ft 509 kts 354°
2026-05-06 13:50 34.25988 -97.00607 30238 ft 506 kts 354°
2026-05-06 13:51 34.29503 -97.00147 30652 ft 508 kts 354°
2026-05-06 13:51 34.33028 -96.99615 30887 ft 518 kts 356°
2026-05-06 13:51 34.36602 -96.98800 31440 ft 525 kts
2026-05-06 13:51 34.40153 -96.97588 31983 ft 532 kts
2026-05-06 13:52 34.43621 -96.95999 32283 ft 545 kts 13°
2026-05-06 13:52 34.47080 -96.94025 32726 ft 551 kts 17°
2026-05-06 13:52 34.50485 -96.91836 33107 ft 555 kts 19°
2026-05-06 13:52 34.53832 -96.89572 33479 ft 558 kts 20°
2026-05-06 13:53 34.57213 -96.87240 34016 ft 556 kts 20°
2026-05-06 13:53 34.60537 -96.84939 34702 ft 550 kts 20°
2026-05-06 13:53 34.63877 -96.82646 35149 ft 549 kts 19°
2026-05-06 13:53 34.67231 -96.80377 35561 ft 548 kts 18°
2026-05-06 13:54 34.70520 -96.78175 36178 ft 543 kts 18°
2026-05-06 13:54 34.73835 -96.75977 36499 ft 544 kts 18°
2026-05-06 13:54 34.77175 -96.73785 36760 ft 546 kts 17°
2026-05-06 13:54 34.80524 -96.71596 37029 ft 546 kts 17°
2026-05-06 13:55 34.87269 -96.67194 37042 ft 541 kts 17°
2026-05-06 13:55 34.93978 -96.62798 37041 ft 540 kts 17°
2026-05-06 13:56 35.00663 -96.58420 37040 ft 545 kts 17°
2026-05-06 13:56 35.07383 -96.54000 37046 ft 544 kts 17°
2026-05-06 13:57 35.14046 -96.49606 37044 ft 544 kts 17°
2026-05-06 13:57 35.20713 -96.45203 37044 ft 546 kts 17°
2026-05-06 13:58 35.27393 -96.40776 37048 ft 546 kts 17°
2026-05-06 13:58 35.34049 -96.36356 37049 ft 544 kts 17°
2026-05-06 13:59 35.40703 -96.31937 37051 ft 547 kts 17°
2026-05-06 13:59 35.47374 -96.27495 37056 ft 545 kts 17°
2026-05-06 14:00 35.54010 -96.23066 37059 ft 545 kts 17°
2026-05-06 14:00 35.60690 -96.18599 37060 ft 545 kts 17°
2026-05-06 14:01 35.67309 -96.14169 37067 ft 547 kts 17°
2026-05-06 14:01 35.73990 -96.09689 37073 ft 545 kts 17°
2026-05-06 14:02 35.80642 -96.05224 37083 ft 545 kts 17°
2026-05-06 14:02 35.87308 -96.00739 37078 ft 549 kts 17°
2026-05-06 14:03 35.93976 -95.96241 37085 ft 546 kts 17°
2026-05-06 14:03 36.00619 -95.91740 37089 ft 546 kts 17°
2026-05-06 14:04 36.07280 -95.87223 37090 ft 545 kts 17°
2026-05-06 14:04 36.13943 -95.82718 37093 ft 545 kts 15°
2026-05-06 14:05 36.20702 -95.78686 37095 ft 529 kts
2026-05-06 14:05 36.27651 -95.75852 37093 ft 520 kts
2026-05-06 14:06 36.34590 -95.73631 37097 ft 512 kts 359°
2026-05-06 14:06 36.41528 -95.71507 37097 ft 510 kts 358°
2026-05-06 14:07 36.48416 -95.69356 37097 ft 515 kts 359°
2026-05-06 14:07 36.55338 -95.67130 37101 ft 516 kts 359°
2026-05-06 14:08 36.62290 -95.64850 37100 ft 512 kts 359°